Time,TemperatureF,DewpointF,PressureIn,WindDirection,WindDirectionDegrees,WindSpeedMPH,WindSpeedGustMPH,Humidity,HourlyPrecipIn,Conditions,Clouds,dailyrainin,SolarRadiationWatts/m^2,SoftwareType,DateUTC
2013-08-02 00:01:00,65.0,63.8,29.87,South,176,0.0,0.0,96,0.01,,-RA,0.00,0.00,VWS V14.01,2013-08-02 04:01:00,
2013-08-02 00:02:00,65.0,63.8,29.87,South,176,0.0,0.0,96,0.01,,-RA,0.00,0.00,VWS V14.01,2013-08-02 04:02:00,
2013-08-02 00:07:00,65.0,63.8,29.87,South,176,0.0,0.0,96,0.01,,-RA,0.00,0.00,VWS V14.01,2013-08-02 04:07:00,
2013-08-02 00:12:00,65.0,63.8,29.87,South,176,0.0,0.0,96,0.00,,-RA,0.00,0.00,VWS V14.01,2013-08-02 04:12:00,
2013-08-02 00:15:00,65.0,63.8,29.87,South,176,0.0,0.0,96,0.00,,-RA,0.00,0.00,VWS V14.01,2013-08-02 04:15:00,
2013-08-02 00:17:00,64.9,63.7,29.87,South,176,0.0,0.0,96,0.00,,-RA,0.00,0.00,VWS V14.01,2013-08-02 04:17:00,
2013-08-02 00:22:00,65.0,63.8,29.87,South,176,0.0,0.0,96,0.00,,-RA,0.00,0.00,VWS V14.01,2013-08-02 04:22:00,
2013-08-02 00:27:00,65.0,63.8,29.87,South,176,0.0,0.0,96,0.01,,-RA,0.01,0.00,VWS V14.01,2013-08-02 04:27:00,
2013-08-02 00:32:00,65.0,63.8,29.87,South,176,0.0,0.0,96,0.01,,-RA,0.01,0.00,VWS V14.01,2013-08-02 04:32:00,
2013-08-02 00:37:00,64.9,63.7,29.86,South,176,0.0,0.0,96,0.01,,-RA,0.01,0.00,VWS V14.01,2013-08-02 04:37:00,
2013-08-02 00:42:00,64.9,63.7,29.86,South,176,0.0,0.0,96,0.01,,-RA,0.01,0.00,VWS V14.01,2013-08-02 04:42:00,
2013-08-02 00:47:00,64.8,63.6,29.86,South,176,0.0,0.0,96,0.01,,RA,0.01,0.00,VWS V14.01,2013-08-02 04:47:00,
2013-08-02 00:52:00,64.8,63.9,29.86,South,176,0.0,0.0,97,0.01,,RA,0.01,0.00,VWS V14.01,2013-08-02 04:52:00,
2013-08-02 00:57:00,64.8,63.9,29.86,South,176,0.0,0.0,97,0.01,,RA,0.01,0.00,VWS V14.01,2013-08-02 04:57:00,
2013-08-02 01:02:00,64.8,63.9,29.86,South,176,0.0,0.0,97,0.01,,-RA,0.01,0.00,VWS V14.01,2013-08-02 05:02:00,
2013-08-02 01:07:00,64.8,63.9,29.85,South,176,0.0,0.0,97,0.01,,-RA,0.01,0.00,VWS V14.01,2013-08-02 05:07:00,
2013-08-02 01:12:00,64.8,63.9,29.85,South,176,0.0,0.0,97,0.01,,-RA,0.01,0.00,VWS V14.01,2013-08-02 05:12:00,
2013-08-02 01:17:00,64.8,63.9,29.85,South,176,0.0,0.0,97,0.01,,-RA,0.01,0.00,VWS V14.01,2013-08-02 05:17:00,
2013-08-02 01:22:00,64.8,63.9,29.85,South,176,0.0,0.0,97,0.01,,-RA,0.01,0.00,VWS V14.01,2013-08-02 05:22:00,
2013-08-02 01:27:00,64.8,63.9,29.84,South,176,0.0,0.0,97,0.02,,-RA,0.02,0.00,VWS V14.01,2013-08-02 05:27:00,
2013-08-02 01:32:00,64.7,63.8,29.84,South,176,0.0,0.0,97,0.01,,-RA,0.02,0.00,VWS V14.01,2013-08-02 05:32:00,
2013-08-02 01:37:00,64.7,63.8,29.84,South,176,0.0,0.0,97,0.02,,-RA,0.03,0.00,VWS V14.01,2013-08-02 05:37:00,
2013-08-02 01:42:00,64.7,63.8,29.84,South,176,0.0,0.0,97,0.02,,-RA,0.03,0.00,VWS V14.01,2013-08-02 05:42:00,
2013-08-02 01:47:00,64.7,63.8,29.84,South,176,0.0,1.0,97,0.03,,-RA,0.04,0.00,VWS V14.01,2013-08-02 05:47:00,
2013-08-02 01:52:00,64.6,63.7,29.84,South,176,0.0,0.0,97,0.05,,-RA,0.06,0.00,VWS V14.01,2013-08-02 05:52:00,
2013-08-02 01:57:00,64.5,63.6,29.84,South,176,1.0,2.0,97,0.07,,-RA,0.08,0.00,VWS V14.01,2013-08-02 05:57:00,
2013-08-02 02:02:00,64.5,63.6,29.84,South,176,0.0,0.0,97,0.07,,RA,0.08,0.00,VWS V14.01,2013-08-02 06:02:00,
2013-08-02 02:07:00,64.5,63.6,29.83,South,176,0.0,1.0,97,0.07,,RA,0.08,0.00,VWS V14.01,2013-08-02 06:07:00,
2013-08-02 02:12:00,64.5,63.6,29.83,South,176,0.0,0.0,97,0.07,,RA,0.08,0.00,VWS V14.01,2013-08-02 06:12:00,
2013-08-02 02:17:00,64.5,63.6,29.83,South,176,0.0,0.0,97,0.07,,RA,0.08,0.00,VWS V14.01,2013-08-02 06:17:00,
2013-08-02 02:22:00,64.5,63.6,29.83,South,176,0.0,0.0,97,0.08,,RA,0.09,0.00,VWS V14.01,2013-08-02 06:22:00,
2013-08-02 02:27:00,64.5,63.6,29.83,South,176,0.0,0.0,97,0.09,,RA,0.10,0.00,VWS V14.01,2013-08-02 06:27:00,
2013-08-02 02:33:00,64.5,63.6,29.82,South,176,0.0,1.0,97,0.08,,RA,0.10,0.00,VWS V14.01,2013-08-02 06:33:00,
2013-08-02 02:38:00,64.4,63.5,29.82,South,176,0.0,2.0,97,0.12,,RA,0.14,0.00,VWS V14.01,2013-08-02 06:38:00,
2013-08-02 02:43:00,64.3,63.4,29.82,South,176,0.0,0.0,97,0.19,,RA,0.22,0.00,VWS V14.01,2013-08-02 06:43:00,
2013-08-02 02:48:00,64.3,63.4,29.82,South,176,0.0,2.0,97,0.26,,RA,0.29,0.00,VWS V14.01,2013-08-02 06:48:00,
2013-08-02 02:53:00,64.2,63.3,29.82,South,176,0.0,2.0,97,0.30,,RA,0.36,0.00,VWS V14.01,2013-08-02 06:53:00,
2013-08-02 02:58:00,64.1,63.2,29.81,South,176,0.0,2.0,97,0.32,,RA,0.38,0.00,VWS V14.01,2013-08-02 06:58:00,
2013-08-02 03:03:00,64.0,63.1,29.81,South,176,0.0,0.0,97,0.33,,RA,0.41,0.00,VWS V14.01,2013-08-02 07:03:00,
2013-08-02 03:08:00,63.9,63.0,29.81,South,176,0.0,1.0,97,0.34,,RA,0.42,0.00,VWS V14.01,2013-08-02 07:08:00,
2013-08-02 03:13:00,63.8,62.9,29.81,South,176,0.0,0.0,97,0.36,,RA,0.44,0.00,VWS V14.01,2013-08-02 07:13:00,
2013-08-02 03:18:00,63.7,62.8,29.81,South,176,0.0,0.0,97,0.39,,RA,0.47,0.00,VWS V14.01,2013-08-02 07:18:00,
2013-08-02 03:23:00,63.7,62.8,29.81,South,176,0.0,0.0,97,0.41,,RA,0.50,0.00,VWS V14.01,2013-08-02 07:23:00,
2013-08-02 03:28:00,63.6,62.7,29.81,South,176,0.0,0.0,97,0.43,,RA,0.52,0.00,VWS V14.01,2013-08-02 07:28:00,
2013-08-02 03:33:00,63.5,62.6,29.81,South,176,0.0,0.0,97,0.42,,RA,0.52,0.00,VWS V14.01,2013-08-02 07:33:00,
2013-08-02 03:38:00,63.5,62.6,29.81,South,176,0.0,0.0,97,0.44,,RA,0.54,0.00,VWS V14.01,2013-08-02 07:38:00,
2013-08-02 03:43:00,63.5,62.9,29.81,South,176,0.0,0.0,98,0.35,,RA,0.55,0.00,VWS V14.01,2013-08-02 07:43:00,
2013-08-02 03:48:00,63.5,62.9,29.81,South,176,0.0,0.0,98,0.35,,RA,0.55,0.00,VWS V14.01,2013-08-02 07:48:00,
2013-08-02 03:53:00,63.5,62.9,29.81,South,176,0.0,0.0,98,0.24,,RA,0.56,0.00,VWS V14.01,2013-08-02 07:53:00,
2013-08-02 03:58:00,63.5,62.9,29.81,South,176,0.0,0.0,98,0.24,,RA,0.56,0.00,VWS V14.01,2013-08-02 07:58:00,
2013-08-02 04:03:00,63.4,62.8,29.81,South,176,0.0,0.0,98,0.17,,-RA,0.56,0.00,VWS V14.01,2013-08-02 08:03:00,
2013-08-02 04:08:00,63.4,62.8,29.81,South,176,0.0,0.0,98,0.17,,-RA,0.56,0.00,VWS V14.01,2013-08-02 08:08:00,
2013-08-02 04:13:00,63.4,62.8,29.81,South,176,0.0,0.0,98,0.13,,-RA,0.56,0.00,VWS V14.01,2013-08-02 08:13:00,
2013-08-02 04:18:00,63.4,62.8,29.81,South,176,0.0,0.0,98,0.13,,-RA,0.56,0.00,VWS V14.01,2013-08-02 08:18:00,
2013-08-02 04:23:00,63.4,62.8,29.81,South,176,0.0,0.0,98,0.09,,-RA,0.57,0.00,VWS V14.01,2013-08-02 08:23:00,
2013-08-02 04:28:00,63.4,62.8,29.81,South,176,0.0,0.0,98,0.09,,-RA,0.57,0.00,VWS V14.01,2013-08-02 08:28:00,
2013-08-02 04:33:00,63.4,62.8,29.81,South,176,0.0,0.0,98,0.06,,-RA,0.58,0.00,VWS V14.01,2013-08-02 08:33:00,
2013-08-02 04:38:00,63.4,62.8,29.81,South,176,0.0,0.0,98,0.06,,-RA,0.58,0.00,VWS V14.01,2013-08-02 08:38:00,
2013-08-02 04:43:00,63.5,62.9,29.81,South,176,0.0,0.0,98,0.06,,-RA,0.60,0.00,VWS V14.01,2013-08-02 08:43:00,
2013-08-02 04:48:00,63.5,62.9,29.81,South,176,0.0,0.0,98,0.06,,-RA,0.60,0.00,VWS V14.01,2013-08-02 08:48:00,
2013-08-02 04:53:00,63.5,62.9,29.82,South,176,0.0,0.0,98,0.05,,-RA,0.60,0.00,VWS V14.01,2013-08-02 08:53:00,
2013-08-02 04:58:00,63.5,62.9,29.82,South,176,0.0,0.0,98,0.06,,-RA,0.61,0.00,VWS V14.01,2013-08-02 08:58:00,
2013-08-02 05:03:00,63.5,62.9,29.82,South,176,0.0,0.0,98,0.07,,-RA,0.63,0.00,VWS V14.01,2013-08-02 09:03:00,
2013-08-02 05:08:00,63.5,62.9,29.82,South,176,0.0,0.0,98,0.09,,-RA,0.65,0.00,VWS V14.01,2013-08-02 09:08:00,
2013-08-02 05:13:00,63.5,62.9,29.81,South,176,0.0,0.0,98,0.10,,-RA,0.66,0.00,VWS V14.01,2013-08-02 09:13:00,
2013-08-02 05:18:00,63.5,62.9,29.81,South,176,0.0,0.0,98,0.10,,-RA,0.66,0.00,VWS V14.01,2013-08-02 09:18:00,
2013-08-02 05:23:00,63.5,62.9,29.81,South,176,0.0,0.0,98,0.10,,-RA,0.66,0.00,VWS V14.01,2013-08-02 09:23:00,
2013-08-02 05:28:00,63.6,63.0,29.81,South,176,0.0,0.0,98,0.10,,-RA,0.66,0.00,VWS V14.01,2013-08-02 09:28:00,
2013-08-02 05:33:00,63.6,63.0,29.82,South,176,0.0,0.0,98,0.09,,-RA,0.66,0.00,VWS V14.01,2013-08-02 09:33:00,
2013-08-02 05:38:00,63.7,63.1,29.82,SSE,165,0.0,0.0,98,0.09,,-RA,0.66,0.00,VWS V14.01,2013-08-02 09:38:00,
2013-08-02 05:43:00,63.7,63.1,29.82,SW,219,0.0,0.0,98,0.07,,-RA,0.66,0.00,VWS V14.01,2013-08-02 09:43:00,
2013-08-02 05:48:00,63.7,63.1,29.82,SW,219,0.0,0.0,98,0.07,,-RA,0.66,0.00,VWS V14.01,2013-08-02 09:48:00,
2013-08-02 05:53:00,63.8,63.2,29.83,SW,219,0.0,0.0,98,0.06,,-RA,0.66,0.00,VWS V14.01,2013-08-02 09:53:00,
2013-08-02 05:58:00,63.8,63.2,29.82,SW,219,0.0,0.0,98,0.06,,-RA,0.66,0.00,VWS V14.01,2013-08-02 09:58:00,
2013-08-02 06:03:00,63.8,63.2,29.82,SW,219,0.0,0.0,98,0.04,,-RA,0.66,0.00,VWS V14.01,2013-08-02 10:03:00,
2013-08-02 06:08:00,63.8,63.2,29.82,SW,219,0.0,0.0,98,0.04,,-RA,0.66,0.00,VWS V14.01,2013-08-02 10:08:00,
2013-08-02 06:13:00,63.8,63.2,29.82,SW,219,0.0,0.0,98,0.00,,-RA,0.66,0.00,VWS V14.01,2013-08-02 10:13:00,
2013-08-02 06:19:00,63.8,63.2,29.82,SW,219,0.0,1.0,98,0.00,,,0.66,0.00,VWS V14.01,2013-08-02 10:19:00,
2013-08-02 06:23:00,63.8,63.2,29.82,SW,219,0.0,0.0,98,0.01,,,0.67,0.00,VWS V14.01,2013-08-02 10:23:00,
2013-08-02 06:29:00,63.8,63.2,29.82,SW,219,0.0,0.0,98,0.01,,,0.67,5.00,VWS V14.01,2013-08-02 10:29:00,
2013-08-02 06:34:00,63.8,63.2,29.82,SW,219,0.0,0.0,98,0.01,,,0.67,0.00,VWS V14.01,2013-08-02 10:34:00,
2013-08-02 06:39:00,63.8,63.2,29.82,SW,219,0.0,0.0,98,0.01,,,0.67,9.00,VWS V14.01,2013-08-02 10:39:00,
2013-08-02 06:44:00,63.9,63.3,29.82,SW,219,0.0,0.0,98,0.01,,,0.67,0.00,VWS V14.01,2013-08-02 10:44:00,
2013-08-02 06:49:00,63.9,63.3,29.82,SW,219,0.0,0.0,98,0.01,,,0.67,0.00,VWS V14.01,2013-08-02 10:49:00,
2013-08-02 06:54:00,63.9,63.3,29.83,SW,219,0.0,0.0,98,0.01,,,0.67,11.00,VWS V14.01,2013-08-02 10:54:00,
2013-08-02 06:59:00,63.9,63.3,29.83,SW,219,0.0,0.0,98,0.01,,,0.67,9.00,VWS V14.01,2013-08-02 10:59:00,
2013-08-02 07:04:00,63.9,63.3,29.83,SW,219,0.0,0.0,98,0.01,,,0.67,16.00,VWS V14.01,2013-08-02 11:04:00,
2013-08-02 07:09:00,63.9,63.3,29.83,SW,219,0.0,0.0,98,0.01,,,0.67,46.00,VWS V14.01,2013-08-02 11:09:00,
2013-08-02 07:14:00,64.0,63.4,29.83,SW,219,0.0,0.0,98,0.01,,,0.67,25.00,VWS V14.01,2013-08-02 11:14:00,
2013-08-02 07:19:00,64.0,63.4,29.83,SW,219,0.0,0.0,98,0.01,,,0.67,11.00,VWS V14.01,2013-08-02 11:19:00,
2013-08-02 07:24:00,64.0,63.4,29.83,SW,219,0.0,0.0,98,0.01,,,0.67,19.00,VWS V14.01,2013-08-02 11:24:00,
2013-08-02 07:29:00,64.0,63.4,29.84,SW,219,0.0,0.0,98,0.01,,,0.67,30.00,VWS V14.01,2013-08-02 11:29:00,
2013-08-02 07:34:00,64.0,63.4,29.83,SW,219,0.0,0.0,98,0.00,,,0.67,37.00,VWS V14.01,2013-08-02 11:34:00,
2013-08-02 07:39:00,64.2,63.6,29.83,SW,219,0.0,2.0,98,0.00,,,0.67,72.00,VWS V14.01,2013-08-02 11:39:00,
2013-08-02 07:44:00,64.3,63.7,29.83,SW,219,0.0,0.0,98,0.00,,,0.67,67.00,VWS V14.01,2013-08-02 11:44:00,
2013-08-02 07:49:00,64.5,63.9,29.83,SW,223,0.0,1.0,98,0.00,,,0.67,65.00,VWS V14.01,2013-08-02 11:49:00,
2013-08-02 07:54:00,64.6,64.0,29.83,SW,223,0.0,0.0,98,0.00,,,0.67,109.00,VWS V14.01,2013-08-02 11:54:00,
2013-08-02 07:59:00,64.9,64.3,29.83,SW,223,0.0,0.0,98,0.00,,,0.67,102.00,VWS V14.01,2013-08-02 11:59:00,
2013-08-02 08:04:00,65.1,64.5,29.83,SW,223,0.0,0.0,98,0.00,,,0.67,105.00,VWS V14.01,2013-08-02 12:04:00,
2013-08-02 08:09:00,65.2,64.6,29.83,SW,223,0.0,0.0,98,0.00,,,0.67,84.00,VWS V14.01,2013-08-02 12:09:00,
2013-08-02 08:14:00,65.3,64.7,29.83,SW,223,0.0,0.0,98,0.00,,,0.67,72.00,VWS V14.01,2013-08-02 12:14:00,
2013-08-02 08:19:00,65.3,65.0,29.83,SW,223,0.0,0.0,99,0.00,,,0.67,83.00,VWS V14.01,2013-08-02 12:19:00,
2013-08-02 08:24:00,65.4,65.1,29.83,SW,223,0.0,0.0,99,0.00,,,0.67,97.00,VWS V14.01,2013-08-02 12:24:00,
2013-08-02 08:29:00,65.5,64.9,29.83,SW,223,0.0,0.0,98,0.00,,,0.67,139.00,VWS V14.01,2013-08-02 12:29:00,
2013-08-02 08:34:00,65.7,65.1,29.83,SW,223,0.0,0.0,98,0.00,,,0.67,142.00,VWS V14.01,2013-08-02 12:34:00,
2013-08-02 08:39:00,65.9,65.3,29.83,SW,223,0.0,0.0,98,0.00,,,0.67,105.00,VWS V14.01,2013-08-02 12:39:00,
2013-08-02 08:44:00,65.9,65.3,29.83,SW,223,0.0,0.0,98,0.00,,,0.67,125.00,VWS V14.01,2013-08-02 12:44:00,
2013-08-02 08:49:00,66.0,65.7,29.83,SW,223,0.0,0.0,99,0.00,,,0.67,167.00,VWS V14.01,2013-08-02 12:49:00,
2013-08-02 08:54:00,66.4,65.8,29.83,SW,223,0.0,0.0,98,0.00,,,0.67,207.00,VWS V14.01,2013-08-02 12:54:00,
2013-08-02 08:59:00,66.8,66.5,29.83,SW,223,0.0,0.0,99,0.00,,,0.67,216.00,VWS V14.01,2013-08-02 12:59:00,
2013-08-02 09:04:00,66.7,66.4,29.83,SW,223,0.0,0.0,99,0.00,,,0.67,241.00,VWS V14.01,2013-08-02 13:04:00,
2013-08-02 09:09:00,66.9,66.6,29.83,SW,223,0.0,0.0,99,0.00,,,0.67,229.00,VWS V14.01,2013-08-02 13:09:00,
2013-08-02 09:14:00,67.1,66.5,29.83,SW,223,0.0,0.0,98,0.00,,,0.67,269.00,VWS V14.01,2013-08-02 13:14:00,
2013-08-02 09:19:00,67.2,66.6,29.83,SW,223,0.0,0.0,98,0.00,,BKN007,0.67,223.00,VWS V14.01,2013-08-02 13:19:00,
2013-08-02 09:24:00,67.4,66.8,29.83,West,269,1.0,1.0,98,0.00,,BKN007,0.67,234.00,VWS V14.01,2013-08-02 13:24:00,
2013-08-02 09:29:00,67.7,67.1,29.83,West,269,0.0,1.0,98,0.00,,BKN007,0.67,162.00,VWS V14.01,2013-08-02 13:29:00,
2013-08-02 09:34:00,67.9,67.3,29.82,West,269,0.0,0.0,98,0.00,,BKN007,0.67,735.00,VWS V14.01,2013-08-02 13:34:00,
2013-08-02 09:39:00,69.0,68.4,29.82,West,269,0.0,0.0,98,0.00,,BKN007,0.67,865.00,VWS V14.01,2013-08-02 13:39:00,
2013-08-02 09:44:00,69.5,68.9,29.82,West,272,0.0,3.0,98,0.00,,BKN007,0.67,221.00,VWS V14.01,2013-08-02 13:44:00,
2013-08-02 09:49:00,69.4,67.9,29.82,WSW,248,0.0,3.0,95,0.00,,BKN007,0.67,258.00,VWS V14.01,2013-08-02 13:49:00,
2013-08-02 09:54:00,69.5,68.0,29.83,WSW,248,1.0,1.0,95,0.00,,BKN007,0.67,248.00,VWS V14.01,2013-08-02 13:54:00,
2013-08-02 09:59:00,69.6,67.8,29.83,WSW,248,0.0,2.0,94,0.00,,BKN007,0.67,192.00,VWS V14.01,2013-08-02 13:59:00,
2013-08-02 10:04:00,69.6,67.8,29.83,WSW,248,0.0,0.0,94,0.00,,BKN012,0.67,299.00,VWS V14.01,2013-08-02 14:04:00,
2013-08-02 10:09:00,70.0,68.2,29.83,WSW,250,0.0,2.0,94,0.00,,BKN012,0.67,260.00,VWS V14.01,2013-08-02 14:09:00,
2013-08-02 10:14:00,70.3,68.2,29.82,WSW,250,0.0,0.0,93,0.00,,BKN012,0.67,800.00,VWS V14.01,2013-08-02 14:14:00,
2013-08-02 10:19:00,70.8,68.1,29.82,WSW,250,0.0,1.0,91,0.00,,BKN027,0.67,911.00,VWS V14.01,2013-08-02 14:19:00,
2013-08-02 10:24:00,71.5,68.7,29.82,WSW,250,0.0,2.0,91,0.00,,BKN027,0.67,939.00,VWS V14.01,2013-08-02 14:24:00,
2013-08-02 10:30:00,72.3,68.2,29.82,WSW,250,0.0,2.0,87,0.00,,BKN027,0.67,940.00,VWS V14.01,2013-08-02 14:30:00,
2013-08-02 10:35:00,73.1,70.0,29.82,WSW,250,0.0,0.0,90,0.00,,BKN027,0.67,696.00,VWS V14.01,2013-08-02 14:35:00,
2013-08-02 10:40:00,73.5,69.1,29.82,SSE,168,0.0,3.0,86,0.00,,BKN027,0.67,264.00,VWS V14.01,2013-08-02 14:40:00,
2013-08-02 10:45:00,73.4,68.6,29.82,SSE,166,0.0,2.0,85,0.00,,BKN027,0.67,167.00,VWS V14.01,2013-08-02 14:45:00,
2013-08-02 10:50:00,73.2,68.8,29.82,SSE,166,0.0,2.0,86,0.00,,SCT021,0.67,893.00,VWS V14.01,2013-08-02 14:50:00,
2013-08-02 10:55:00,73.6,68.8,29.82,SSE,166,1.0,2.0,85,0.00,,SCT021,0.67,921.00,VWS V14.01,2013-08-02 14:55:00,
2013-08-02 11:00:00,74.3,68.8,29.82,SSE,155,1.0,2.0,83,0.00,,SCT021,0.67,990.00,VWS V14.01,2013-08-02 15:00:00,
2013-08-02 11:05:00,74.8,68.2,29.82,SSE,154,1.0,2.0,80,0.00,,SCT021,0.67,1018.00,VWS V14.01,2013-08-02 15:05:00,
2013-08-02 11:10:00,75.4,69.5,29.82,SSE,154,0.0,3.0,82,0.00,,SCT021,0.67,1027.00,VWS V14.01,2013-08-02 15:10:00,
2013-08-02 11:15:00,76.1,69.5,29.82,ENE,67,1.0,2.0,80,0.00,,SCT021,0.67,984.00,VWS V14.01,2013-08-02 15:15:00,
2013-08-02 11:20:00,76.7,68.6,29.82,North,360,0.0,4.0,76,0.00,,SCT021,0.67,990.00,VWS V14.01,2013-08-02 15:20:00,
2013-08-02 11:25:00,77.1,69.3,29.82,North,360,0.0,2.0,77,0.00,,SCT021,0.67,1041.00,VWS V14.01,2013-08-02 15:25:00,
2013-08-02 11:30:00,77.6,69.8,29.82,North,5,0.0,2.0,77,0.00,,SCT021,0.67,986.00,VWS V14.01,2013-08-02 15:30:00,
2013-08-02 11:35:00,78.0,69.8,29.82,North,5,0.0,1.0,76,0.00,,SCT021,0.67,986.00,VWS V14.01,2013-08-02 15:35:00,
2013-08-02 11:40:00,78.0,69.1,29.82,NE,54,3.0,6.0,74,0.00,,SCT021,0.67,1048.00,VWS V14.01,2013-08-02 15:40:00,
2013-08-02 11:45:00,77.2,68.3,29.82,NE,56,1.0,4.0,74,0.00,,SCT021,0.67,199.00,VWS V14.01,2013-08-02 15:45:00,
2013-08-02 11:50:00,76.4,69.4,29.82,NNE,15,0.0,4.0,79,0.00,,SCT021,0.67,169.00,VWS V14.01,2013-08-02 15:50:00,
2013-08-02 11:55:00,76.6,68.9,29.82,NE,36,2.0,3.0,77,0.00,,SCT021,0.67,984.00,VWS V14.01,2013-08-02 15:55:00,
2013-08-02 12:00:00,77.2,68.7,29.82,NE,49,1.0,4.0,75,0.00,,SCT021,0.67,998.00,VWS V14.01,2013-08-02 16:00:00,
2013-08-02 12:05:00,77.7,68.8,29.82,NE,49,0.0,1.0,74,0.00,,SCT032,0.67,986.00,VWS V14.01,2013-08-02 16:05:00,
2013-08-02 12:10:00,78.2,70.4,29.82,NNE,26,0.0,6.0,77,0.00,,SCT032,0.67,998.00,VWS V14.01,2013-08-02 16:10:00,
2013-08-02 12:15:00,78.5,68.3,29.81,NNE,26,0.0,1.0,71,0.00,,SCT032,0.67,1090.00,VWS V14.01,2013-08-02 16:15:00,
2013-08-02 12:20:00,78.7,68.5,29.81,NNE,26,1.0,2.0,71,0.00,,SCT032,0.67,279.00,VWS V14.01,2013-08-02 16:20:00,
2013-08-02 12:25:00,78.8,69.8,29.81,NNE,26,0.0,2.0,74,0.00,,SCT032,0.67,1113.00,VWS V14.01,2013-08-02 16:25:00,
2013-08-02 12:30:00,79.0,68.0,29.81,NNE,26,0.0,2.0,69,0.00,,SCT032,0.67,148.00,VWS V14.01,2013-08-02 16:30:00,
2013-08-02 12:35:00,79.1,70.1,29.81,NNE,26,0.0,2.0,74,0.00,,SCT032,0.67,153.00,VWS V14.01,2013-08-02 16:35:00,
2013-08-02 12:40:00,79.0,66.2,29.81,NNE,26,0.0,2.0,65,0.00,,SCT032,0.67,172.00,VWS V14.01,2013-08-02 16:40:00,
2013-08-02 12:45:00,79.3,69.1,29.81,ENE,75,0.0,4.0,71,0.00,,SCT032,0.67,1164.00,VWS V14.01,2013-08-02 16:45:00,
2013-08-02 12:50:00,79.2,68.2,29.80,ENE,75,0.0,4.0,69,0.00,,SCT032,0.67,237.00,VWS V14.01,2013-08-02 16:50:00,
2013-08-02 12:55:00,79.0,68.0,29.80,ENE,75,0.0,2.0,69,0.00,,SCT032,0.67,364.00,VWS V14.01,2013-08-02 16:55:00,
2013-08-02 13:00:00,79.1,68.5,29.80,North,5,0.0,3.0,70,0.00,,SCT032,0.67,1095.00,VWS V14.01,2013-08-02 17:00:00,
2013-08-02 13:05:00,79.8,69.2,29.80,NE,40,0.0,2.0,70,0.00,,SCT037,0.67,1107.00,VWS V14.01,2013-08-02 17:05:00,
2013-08-02 13:10:00,80.2,69.9,29.80,NE,40,0.0,2.0,71,0.00,,SCT037,0.67,257.00,VWS V14.01,2013-08-02 17:10:00,
2013-08-02 13:15:00,79.8,68.7,29.80,NE,40,0.0,2.0,69,0.00,,SCT037,0.67,163.00,VWS V14.01,2013-08-02 17:15:00,
2013-08-02 13:20:00,79.4,67.9,29.80,NE,40,0.0,2.0,68,0.00,,SCT037,0.67,200.00,VWS V14.01,2013-08-02 17:20:00,
2013-08-02 13:25:00,79.4,71.2,29.80,NE,40,0.0,1.0,76,0.00,,SCT037,0.67,1055.00,VWS V14.01,2013-08-02 17:25:00,
2013-08-02 13:30:00,80.0,69.8,29.80,East,100,1.0,1.0,71,0.00,,SCT037,0.67,953.00,VWS V14.01,2013-08-02 17:30:00,
2013-08-02 13:35:00,80.7,67.8,29.80,East,100,0.0,2.0,65,0.00,,SCT037,0.67,954.00,VWS V14.01,2013-08-02 17:35:00,
2013-08-02 13:40:00,81.4,68.1,29.80,SE,130,0.0,0.0,64,0.00,,SCT037,0.67,963.00,VWS V14.01,2013-08-02 17:40:00,
2013-08-02 13:45:00,82.0,67.2,29.79,NNE,28,4.0,4.0,61,0.00,,SCT037,0.67,942.00,VWS V14.01,2013-08-02 17:45:00,
2013-08-02 13:50:00,82.4,68.6,29.79,NNE,27,0.0,0.0,63,0.00,,SCT037,0.67,930.00,VWS V14.01,2013-08-02 17:50:00,
2013-08-02 13:55:00,82.7,67.4,29.79,NNE,27,0.0,2.0,60,0.00,,SCT037,0.67,951.00,VWS V14.01,2013-08-02 17:55:00,
2013-08-02 14:00:00,82.7,66.9,29.79,NE,44,0.0,0.0,59,0.00,,SCT045,0.67,951.00,VWS V14.01,2013-08-02 18:00:00,
2013-08-02 14:05:00,82.8,65.5,29.79,ESE,116,0.0,4.0,56,0.00,,SCT045,0.67,990.00,VWS V14.01,2013-08-02 18:05:00,
2013-08-02 14:10:00,82.6,64.8,29.79,ESE,116,0.0,0.0,55,0.00,,SCT045,0.67,297.00,VWS V14.01,2013-08-02 18:10:00,
2013-08-02 14:15:00,82.3,65.1,29.79,ENE,69,0.0,3.0,56,0.00,,SCT045,0.67,1018.00,VWS V14.01,2013-08-02 18:15:00,
2013-08-02 14:21:00,82.8,67.0,29.79,ENE,69,0.0,0.0,59,0.00,,SCT045,0.67,1042.00,VWS V14.01,2013-08-02 18:21:00,
2013-08-02 14:26:00,83.2,66.9,29.79,ENE,73,1.0,3.0,58,0.00,,SCT045,0.67,213.00,VWS V14.01,2013-08-02 18:26:00,
2013-08-02 14:31:00,82.8,66.0,29.79,ESE,118,0.0,0.0,57,0.00,,SCT045,0.67,162.00,VWS V14.01,2013-08-02 18:31:00,
2013-08-02 14:35:00,81.5,66.3,29.79,ESE,118,0.0,2.0,60,0.00,,SCT045,0.67,552.00,VWS V14.01,2013-08-02 18:35:00,
2013-08-02 14:41:00,80.3,66.1,29.79,ESE,118,0.0,0.0,62,0.00,,SCT045,0.67,193.00,VWS V14.01,2013-08-02 18:41:00,
2013-08-02 14:46:00,79.1,64.5,29.79,ESE,118,0.0,2.0,61,0.00,,SCT045,0.67,98.00,VWS V14.01,2013-08-02 18:46:00,
2013-08-02 14:51:00,77.9,65.2,29.80,ESE,118,0.0,0.0,65,0.00,,SCT045,0.67,935.00,VWS V14.01,2013-08-02 18:51:00,
2013-08-02 14:56:00,77.9,66.5,29.80,ESE,121,2.0,3.0,68,0.00,,SCT045,0.67,879.00,VWS V14.01,2013-08-02 18:56:00,
2013-08-02 15:01:00,78.7,66.0,29.79,East,99,0.0,0.0,65,0.00,,SCT060,0.67,874.00,VWS V14.01,2013-08-02 19:01:00,
2013-08-02 15:06:00,79.7,66.0,29.79,East,101,0.0,3.0,63,0.00,,SCT060,0.67,867.00,VWS V14.01,2013-08-02 19:06:00,
2013-08-02 15:10:00,79.7,65.5,29.79,East,101,1.0,2.0,62,0.00,,SCT060,0.67,225.00,VWS V14.01,2013-08-02 19:10:00,
2013-08-02 15:16:00,79.2,66.0,29.79,East,100,0.0,3.0,64,0.00,,SCT060,0.67,316.00,VWS V14.01,2013-08-02 19:16:00,
2013-08-02 15:21:00,79.2,66.9,29.80,East,100,0.0,1.0,66,0.00,,SCT060,0.67,206.00,VWS V14.01,2013-08-02 19:21:00,
2013-08-02 15:26:00,79.2,66.9,29.80,ESE,121,0.0,3.0,66,0.00,,SCT060,0.67,241.00,VWS V14.01,2013-08-02 19:26:00,
2013-08-02 15:31:00,79.0,67.6,29.80,East,98,0.0,2.0,68,0.00,,SCT060,0.67,179.00,VWS V14.01,2013-08-02 19:31:00,
2013-08-02 15:36:00,78.7,66.4,29.80,East,98,0.0,2.0,66,0.00,,SCT060,0.67,114.00,VWS V14.01,2013-08-02 19:36:00,
2013-08-02 15:41:00,77.9,65.6,29.80,East,98,0.0,0.0,66,0.00,,SCT060,0.67,114.00,VWS V14.01,2013-08-02 19:41:00,
2013-08-02 15:46:00,77.4,65.6,29.79,East,98,0.0,0.0,67,0.00,,SCT060,0.67,176.00,VWS V14.01,2013-08-02 19:46:00,
2013-08-02 15:51:00,77.6,66.6,29.79,North,5,0.0,0.0,69,0.00,,SCT060,0.67,775.00,VWS V14.01,2013-08-02 19:51:00,
2013-08-02 15:56:00,78.7,68.1,29.79,SE,129,1.0,3.0,70,0.00,,SCT060,0.67,526.00,VWS V14.01,2013-08-02 19:56:00,
2013-08-02 16:01:00,79.5,63.9,29.79,SE,137,1.0,1.0,59,0.00,,FEW065,0.67,703.00,VWS V14.01,2013-08-02 20:01:00,
2013-08-02 16:06:00,80.4,65.7,29.79,East,82,0.0,3.0,61,0.00,,FEW065,0.67,668.00,VWS V14.01,2013-08-02 20:06:00,
2013-08-02 16:11:00,80.6,65.9,29.79,East,82,0.0,2.0,61,0.00,,FEW065,0.67,308.00,VWS V14.01,2013-08-02 20:11:00,
2013-08-02 16:16:00,80.3,64.7,29.78,East,82,0.0,2.0,59,0.00,,FEW065,0.67,397.00,VWS V14.01,2013-08-02 20:16:00,
2013-08-02 16:21:00,79.9,65.7,29.78,East,82,0.0,0.0,62,0.00,,FEW065,0.67,671.00,VWS V14.01,2013-08-02 20:21:00,
2013-08-02 16:26:00,80.2,65.5,29.78,East,82,1.0,1.0,61,0.00,,FEW065,0.67,666.00,VWS V14.01,2013-08-02 20:26:00,
2013-08-02 16:31:00,80.6,66.8,29.79,East,83,0.0,2.0,63,0.00,,FEW065,0.67,613.00,VWS V14.01,2013-08-02 20:31:00,
2013-08-02 16:36:00,80.8,64.7,29.79,SE,128,0.0,4.0,58,0.00,,FEW065,0.67,584.00,VWS V14.01,2013-08-02 20:36:00,
2013-08-02 16:41:00,81.0,64.8,29.79,SE,128,0.0,0.0,58,0.00,,FEW065,0.67,548.00,VWS V14.01,2013-08-02 20:41:00,
2013-08-02 16:47:00,81.2,64.5,29.79,SE,129,0.0,0.0,57,0.00,,FEW065,0.67,564.00,VWS V14.01,2013-08-02 20:47:00,
2013-08-02 16:52:00,81.1,63.4,29.79,SSW,198,0.0,3.0,55,0.00,,FEW065,0.67,570.00,VWS V14.01,2013-08-02 20:52:00,
2013-08-02 16:57:00,80.3,63.7,29.79,SSW,198,0.0,3.0,57,0.00,,FEW065,0.67,144.00,VWS V14.01,2013-08-02 20:57:00,
2013-08-02 17:02:00,79.1,64.0,29.79,SSW,198,0.0,1.0,60,0.00,,FEW070,0.67,610.00,VWS V14.01,2013-08-02 21:02:00,
2013-08-02 17:07:00,78.7,63.2,29.79,SSW,198,0.0,1.0,59,0.00,,FEW070,0.67,512.00,VWS V14.01,2013-08-02 21:07:00,
2013-08-02 17:12:00,78.9,64.3,29.79,SE,144,0.0,3.0,61,0.00,,FEW070,0.67,329.00,VWS V14.01,2013-08-02 21:12:00,
2013-08-02 17:17:00,78.9,63.4,29.79,SE,144,0.0,3.0,59,0.00,,FEW070,0.67,86.00,VWS V14.01,2013-08-02 21:17:00,
2013-08-02 17:22:00,78.9,65.7,29.79,SE,144,0.0,0.0,64,0.00,,FEW070,0.67,216.00,VWS V14.01,2013-08-02 21:22:00,
2013-08-02 17:27:00,78.7,64.6,29.79,ENE,58,2.0,7.0,62,0.00,,FEW070,0.67,128.00,VWS V14.01,2013-08-02 21:27:00,
2013-08-02 17:32:00,78.3,64.2,29.79,SE,127,1.0,4.0,62,0.00,,FEW070,0.67,274.00,VWS V14.01,2013-08-02 21:32:00,
2013-08-02 17:37:00,77.6,60.7,29.79,ESE,113,0.0,4.0,56,0.00,,FEW070,0.67,188.00,VWS V14.01,2013-08-02 21:37:00,
2013-08-02 17:42:00,77.3,62.3,29.80,ESE,113,0.0,0.0,60,0.00,,FEW070,0.67,58.00,VWS V14.01,2013-08-02 21:42:00,
2013-08-02 17:47:00,76.8,63.3,29.80,ESE,113,0.0,2.0,63,0.00,,FEW070,0.67,40.00,VWS V14.01,2013-08-02 21:47:00,
2013-08-02 17:53:00,76.3,60.5,29.80,ESE,113,1.0,3.0,58,0.00,,FEW070,0.67,62.00,VWS V14.01,2013-08-02 21:53:00,
2013-08-02 17:58:00,75.8,62.3,29.80,SE,128,0.0,3.0,63,0.00,,FEW070,0.67,218.00,VWS V14.01,2013-08-02 21:58:00,
2013-08-02 18:03:00,75.6,62.1,29.79,SE,128,0.0,0.0,63,0.00,,FEW065,0.67,302.00,VWS V14.01,2013-08-02 22:03:00,
2013-08-02 18:08:00,75.4,60.1,29.80,SE,128,0.0,2.0,59,0.00,,FEW065,0.67,35.00,VWS V14.01,2013-08-02 22:08:00,
2013-08-02 18:13:00,75.2,63.1,29.80,SE,128,0.0,1.0,66,0.00,,FEW065,0.67,35.00,VWS V14.01,2013-08-02 22:13:00,
2013-08-02 18:17:00,74.9,60.6,29.80,SE,128,0.0,4.0,61,0.00,,FEW065,0.67,33.00,VWS V14.01,2013-08-02 22:17:00,
2013-08-02 18:23:00,74.9,61.5,29.80,SE,128,1.0,2.0,63,0.00,,FEW065,0.67,33.00,VWS V14.01,2013-08-02 22:23:00,
2013-08-02 18:28:00,74.8,61.4,29.80,SE,128,0.0,2.0,63,0.00,,FEW065,0.67,32.00,VWS V14.01,2013-08-02 22:28:00,
2013-08-02 18:33:00,74.7,63.0,29.80,ESE,121,0.0,3.0,67,0.00,,FEW065,0.67,32.00,VWS V14.01,2013-08-02 22:33:00,
2013-08-02 18:38:00,74.4,62.7,29.80,SE,126,0.0,3.0,67,0.00,,FEW065,0.67,30.00,VWS V14.01,2013-08-02 22:38:00,
2013-08-02 18:43:00,74.2,60.4,29.80,SE,127,0.0,1.0,62,0.00,,FEW065,0.67,28.00,VWS V14.01,2013-08-02 22:43:00,
2013-08-02 18:48:00,74.1,62.0,29.80,SE,126,0.0,1.0,66,0.00,,FEW065,0.67,26.00,VWS V14.01,2013-08-02 22:48:00,
2013-08-02 18:53:00,73.9,61.8,29.80,SE,126,0.0,0.0,66,0.00,,FEW065,0.67,26.00,VWS V14.01,2013-08-02 22:53:00,
2013-08-02 18:58:00,73.6,60.7,29.81,SE,126,0.0,0.0,64,0.00,,FEW065,0.67,25.00,VWS V14.01,2013-08-02 22:58:00,
2013-08-02 19:03:00,73.4,63.0,29.81,SE,126,0.0,0.0,70,0.00,,FEW070,0.67,23.00,VWS V14.01,2013-08-02 23:03:00,
2013-08-02 19:08:00,73.0,62.7,29.81,SE,126,0.0,0.0,70,0.00,,FEW070,0.67,16.00,VWS V14.01,2013-08-02 23:08:00,
2013-08-02 19:13:00,72.5,63.0,29.81,SE,126,0.0,1.0,72,0.00,,FEW070,0.67,19.00,VWS V14.01,2013-08-02 23:13:00,
2013-08-02 19:18:00,72.0,62.1,29.82,ESE,105,0.0,1.0,71,0.00,,FEW070,0.67,18.00,VWS V14.01,2013-08-02 23:18:00,
2013-08-02 19:23:00,71.8,61.1,29.82,ESE,105,0.0,0.0,69,0.00,,FEW070,0.67,16.00,VWS V14.01,2013-08-02 23:23:00,
2013-08-02 19:28:00,71.6,61.3,29.82,ESE,105,0.0,0.0,70,0.00,,FEW070,0.67,14.00,VWS V14.01,2013-08-02 23:28:00,
2013-08-02 19:33:00,71.5,61.2,29.82,ESE,105,0.0,0.0,70,0.00,,FEW070,0.67,12.00,VWS V14.01,2013-08-02 23:33:00,
2013-08-02 19:38:00,71.3,60.6,29.82,ESE,105,0.0,0.0,69,0.00,,FEW070,0.67,11.00,VWS V14.01,2013-08-02 23:38:00,
2013-08-02 19:43:00,71.0,60.3,29.82,ESE,105,0.0,0.0,69,0.00,,FEW070,0.67,9.00,VWS V14.01,2013-08-02 23:43:00,
2013-08-02 19:48:00,70.8,59.7,29.82,ESE,105,0.0,0.0,68,0.00,,FEW070,0.67,7.00,VWS V14.01,2013-08-02 23:48:00,
2013-08-02 19:53:00,70.5,60.3,29.83,ESE,105,0.0,0.0,70,0.00,,FEW070,0.67,7.00,VWS V14.01,2013-08-02 23:53:00,
2013-08-02 19:58:00,70.3,59.7,29.83,ESE,105,0.0,0.0,69,0.00,,FEW070,0.67,0.00,VWS V14.01,2013-08-02 23:58:00,
2013-08-02 20:03:00,70.0,59.0,29.83,ESE,105,0.0,0.0,68,0.00,,FEW070,0.67,0.00,VWS V14.01,2013-08-03 00:03:00,
2013-08-02 20:08:00,69.7,59.1,29.83,ESE,105,0.0,0.0,69,0.00,,FEW070,0.67,0.00,VWS V14.01,2013-08-03 00:08:00,
2013-08-02 20:13:00,69.5,58.5,29.83,ESE,105,0.0,0.0,68,0.00,,FEW070,0.67,0.00,VWS V14.01,2013-08-03 00:13:00,
2013-08-02 20:18:00,69.4,58.8,29.83,ESE,105,0.0,0.0,69,0.00,,FEW070,0.67,0.00,VWS V14.01,2013-08-03 00:18:00,
2013-08-02 20:23:00,69.2,59.0,29.83,ESE,105,0.0,0.0,70,0.00,,FEW070,0.67,0.00,VWS V14.01,2013-08-03 00:23:00,
2013-08-02 20:28:00,69.0,58.8,29.84,ESE,105,0.0,0.0,70,0.00,,FEW070,0.67,0.00,VWS V14.01,2013-08-03 00:28:00,
2013-08-02 20:33:00,68.8,59.0,29.84,ESE,105,0.0,0.0,71,0.00,,FEW070,0.67,0.00,VWS V14.01,2013-08-03 00:33:00,
2013-08-02 20:38:00,68.6,58.8,29.84,ESE,105,0.0,0.0,71,0.00,,FEW070,0.67,0.00,VWS V14.01,2013-08-03 00:38:00,
2013-08-02 20:43:00,68.4,58.6,29.84,ESE,105,0.0,0.0,71,0.00,,FEW070,0.67,0.00,VWS V14.01,2013-08-03 00:43:00,
2013-08-02 20:48:00,68.2,58.8,29.84,ESE,105,0.0,0.0,72,0.00,,FEW070,0.67,0.00,VWS V14.01,2013-08-03 00:48:00,
2013-08-02 20:53:00,68.1,59.1,29.84,ESE,105,0.0,0.0,73,0.00,,FEW070,0.67,0.00,VWS V14.01,2013-08-03 00:53:00,
2013-08-02 20:58:00,68.0,59.4,29.84,ESE,105,0.0,0.0,74,0.00,,FEW070,0.67,0.00,VWS V14.01,2013-08-03 00:58:00,
2013-08-02 21:03:00,67.8,58.8,29.85,ESE,105,0.0,0.0,73,0.00,,SCT090,0.67,0.00,VWS V14.01,2013-08-03 01:03:00,
2013-08-02 21:08:00,67.6,58.7,29.85,ESE,105,0.0,0.0,73,0.00,,SCT090,0.67,0.00,VWS V14.01,2013-08-03 01:08:00,
2013-08-02 21:13:00,67.4,59.2,29.85,ESE,105,0.0,0.0,75,0.00,,SCT090,0.67,0.00,VWS V14.01,2013-08-03 01:13:00,
2013-08-02 21:18:00,67.3,60.9,29.85,ESE,105,0.0,0.0,80,0.00,,SCT090,0.67,0.00,VWS V14.01,2013-08-03 01:18:00,
2013-08-02 21:23:00,67.1,60.4,29.85,ESE,105,0.0,0.0,79,0.00,,SCT090,0.67,0.00,VWS V14.01,2013-08-03 01:23:00,
2013-08-02 21:28:00,66.9,59.5,29.85,ESE,105,0.0,0.0,77,0.00,,SCT090,0.67,0.00,VWS V14.01,2013-08-03 01:28:00,
2013-08-02 21:33:00,66.8,59.0,29.85,ESE,105,0.0,0.0,76,0.00,,SCT090,0.67,0.00,VWS V14.01,2013-08-03 01:33:00,
2013-08-02 21:38:00,66.8,60.1,29.85,ESE,105,0.0,0.0,79,0.00,,SCT090,0.67,0.00,VWS V14.01,2013-08-03 01:38:00,
2013-08-02 21:43:00,66.8,59.7,29.85,ESE,105,0.0,0.0,78,0.00,,SCT090,0.67,0.00,VWS V14.01,2013-08-03 01:43:00,
2013-08-02 21:48:00,66.7,59.3,29.86,ESE,105,0.0,0.0,77,0.00,,SCT090,0.67,0.00,VWS V14.01,2013-08-03 01:48:00,
2013-08-02 21:53:00,66.8,61.5,29.85,ESE,105,0.0,0.0,83,0.00,,SCT090,0.67,0.00,VWS V14.01,2013-08-03 01:53:00,
2013-08-02 21:58:00,66.8,61.8,29.85,ESE,105,0.0,0.0,84,0.00,,SCT090,0.67,0.00,VWS V14.01,2013-08-03 01:58:00,
2013-08-02 22:03:00,66.7,60.7,29.85,ESE,105,0.0,0.0,81,0.00,,BKN100,0.67,0.00,VWS V14.01,2013-08-03 02:03:00,
2013-08-02 22:09:00,66.7,60.3,29.85,ESE,105,0.0,0.0,80,0.00,,BKN100,0.67,0.00,VWS V14.01,2013-08-03 02:09:00,
2013-08-02 22:14:00,66.8,60.1,29.85,ESE,105,0.0,0.0,79,0.00,,BKN100,0.67,0.00,VWS V14.01,2013-08-03 02:14:00,
2013-08-02 22:18:00,66.9,60.5,29.85,ESE,105,0.0,0.0,80,0.00,,BKN100,0.67,0.00,VWS V14.01,2013-08-03 02:18:00,
2013-08-02 22:23:00,66.9,60.9,29.85,ESE,105,0.0,0.0,81,0.00,,BKN100,0.67,0.00,VWS V14.01,2013-08-03 02:23:00,
2013-08-02 22:29:00,67.0,60.6,29.85,ESE,105,0.0,0.0,80,0.00,,BKN100,0.67,0.00,VWS V14.01,2013-08-03 02:29:00,
2013-08-02 22:34:00,67.1,61.4,29.86,ESE,105,1.0,1.0,82,0.00,,BKN100,0.67,0.00,VWS V14.01,2013-08-03 02:34:00,
2013-08-02 22:39:00,67.2,62.2,29.86,ESE,105,1.0,2.0,84,0.00,,BKN100,0.67,0.00,VWS V14.01,2013-08-03 02:39:00,
2013-08-02 22:44:00,67.2,62.9,29.86,ESE,105,0.0,2.0,86,0.00,,BKN100,0.67,0.00,VWS V14.01,2013-08-03 02:44:00,
2013-08-02 22:49:00,67.0,62.7,29.87,ESE,105,0.0,2.0,86,0.00,,BKN100,0.67,0.00,VWS V14.01,2013-08-03 02:49:00,
2013-08-02 22:54:00,66.8,62.5,29.86,ESE,105,0.0,2.0,86,0.00,,BKN100,0.67,0.00,VWS V14.01,2013-08-03 02:54:00,
2013-08-02 22:59:00,66.7,62.7,29.86,ESE,105,0.0,2.0,87,0.00,,BKN100,0.67,0.00,VWS V14.01,2013-08-03 02:59:00,
2013-08-02 23:04:00,66.5,61.9,29.85,ESE,105,0.0,0.0,85,0.00,,BKN100,0.67,0.00,VWS V14.01,2013-08-03 03:04:00,
2013-08-02 23:09:00,66.6,62.6,29.86,ESE,105,0.0,2.0,87,0.00,,BKN100,0.67,0.00,VWS V14.01,2013-08-03 03:09:00,
2013-08-02 23:14:00,66.5,62.5,29.85,ESE,105,0.0,0.0,87,0.00,,BKN100,0.67,0.00,VWS V14.01,2013-08-03 03:14:00,
2013-08-02 23:19:00,66.2,61.9,29.85,ESE,105,0.0,2.0,86,0.00,,BKN100,0.67,0.00,VWS V14.01,2013-08-03 03:19:00,
2013-08-02 23:24:00,66.0,61.7,29.85,ESE,105,0.0,0.0,86,0.00,,BKN100,0.67,0.00,VWS V14.01,2013-08-03 03:24:00,
2013-08-02 23:29:00,65.8,60.8,29.85,ESE,105,0.0,2.0,84,0.00,,BKN100,0.67,0.00,VWS V14.01,2013-08-03 03:29:00,
2013-08-02 23:34:00,65.6,61.0,29.85,ESE,105,0.0,0.0,85,0.00,,BKN100,0.67,0.00,VWS V14.01,2013-08-03 03:34:00,
2013-08-02 23:39:00,65.5,60.9,29.86,ESE,105,0.0,2.0,85,0.00,,BKN100,0.67,0.00,VWS V14.01,2013-08-03 03:39:00,
2013-08-02 23:44:00,65.4,60.8,29.86,ESE,105,2.0,3.0,85,0.00,,BKN100,0.67,0.00,VWS V14.01,2013-08-03 03:44:00,
2013-08-02 23:49:00,65.5,60.9,29.86,ESE,105,1.0,3.0,85,0.00,,BKN100,0.67,0.00,VWS V14.01,2013-08-03 03:49:00,
2013-08-02 23:54:00,65.4,60.8,29.86,ESE,105,0.0,2.0,85,0.00,,BKN100,0.67,0.00,VWS V14.01,2013-08-03 03:54:00,
2013-08-02 23:59:00,65.4,60.8,29.86,ESE,105,0.0,2.0,85,0.00,,BKN100,0.67,0.00,VWS V14.01,2013-08-03 03:59:00,